When you browse on this site, cookies collect data to enhance your experience and personalize the content and advertising you see.
Visit our Privacy Policy to learn more. By continuing to use the site, you agree to this use of cookies and data.
  • In Hungary
  • List of Countries
  • For 7 days
  • Water Temperature
  • Satellite Maps
  • Weather Map
  • News
  • Weather Widgets
  • user-avatar
    Login

    Hourly Weather Baranove

    Today, 14 December, Friday

    Time Temperature Precipitation Wind Pressure Humidity
    00:00 -2°C° 0 mm 2 mps 751 mmHg 84%
    01:00 -2°C° 0 mm 2 mps 751 mmHg 85%
    02:00 -3°C° 0 mm 2 mps 751 mmHg 85%
    03:00 -3°C° 0 mm 2 mps 751 mmHg 85%
    04:00 -3°C° 0 mm 2 mps 751 mmHg 86%
    05:00 -3°C° 0 mm 2 mps 751 mmHg 86%
    06:00 -3°C° 0 mm 2 mps 751 mmHg 87%
    07:00 -2°C° 0 mm 2 mps 752 mmHg 87%
    08:00 -2°C° 0 mm 2 mps 752 mmHg 88%
    09:00 -1°C° 0 mm 2 mps 752 mmHg 87%
    10:00 -1°C° 0 mm 2 mps 752 mmHg 86%
    11:00 +2°C° 0 mm 1 mps 752 mmHg 85%
    12:00 +2°C° 0 mm 1 mps 752 mmHg 86%
    13:00 +2°C° 0 mm 1 mps 752 mmHg 87%
    14:00 +2°C° 0 mm 1 mps 752 mmHg 87%
    15:00 +1°C° 0 mm 1 mps 752 mmHg 88%
    16:00 +1°C° 0 mm 1 mps 752 mmHg 89%
    17:00 0°C° 0 mm 1 mps 753 mmHg 89%
    18:00 0°C° 0 mm 1 mps 753 mmHg 89%
    19:00 0°C° 0 mm 1 mps 753 mmHg 89%
    20:00 0°C° 0 mm 1 mps 753 mmHg 89%
    21:00 -1°C° 0 mm 1 mps 753 mmHg 90%
    22:00 -1°C° 0 mm 1 mps 753 mmHg 90%
    23:00 -1°C° 0 mm 1 mps 753 mmHg 91%

    Tomorrow, 15 December, Saturday

    Time Temperature Precipitation Wind Pressure Humidity
    00:00 -1°C° 0 mm 1 mps 753 mmHg 91%
    01:00 -3°C° 0 mm 2 mps 754 mmHg 91%
    02:00 -3°C° 0 mm 2 mps 754 mmHg 91%
    03:00 -4°C° 0 mm 2 mps 754 mmHg 91%
    04:00 -4°C° 0 mm 2 mps 754 mmHg 92%
    05:00 -4°C° 0 mm 2 mps 754 mmHg 92%
    06:00 -4°C° 0 mm 2 mps 754 mmHg 92%
    07:00 -5°C° 0 mm 2 mps 755 mmHg 92%
    08:00 -6°C° 0 mm 3 mps 755 mmHg 91%
    09:00 -6°C° 0 mm 3 mps 755 mmHg 88%
    10:00 -5°C° 0 mm 3 mps 756 mmHg 86%
    11:00 -5°C° 0 mm 3 mps 756 mmHg 83%
    12:00 -5°C° 0 mm 3 mps 756 mmHg 82%
    13:00 -5°C° 0 mm 3 mps 756 mmHg 81%
    14:00 -5°C° 0 mm 3 mps 757 mmHg 80%
    15:00 -5°C° 0 mm 3 mps 757 mmHg 81%
    16:00 -5°C° 0 mm 3 mps 757 mmHg 81%
    17:00 -5°C° 0 mm 3 mps 758 mmHg 82%
    18:00 -5°C° 0 mm 3 mps 758 mmHg 83%
    19:00 -5°C° 0 mm 3 mps 758 mmHg 84%
    20:00 -5°C° 0 mm 3 mps 759 mmHg 86%
    21:00 -5°C° 0 mm 3 mps 759 mmHg 86%
    22:00 -5°C° 0 mm 3 mps 759 mmHg 87%
    23:00 -5°C° 0 mm 3 mps 759 mmHg 87%

    Day after tomorrow, 16 December, Sunday

    Time Temperature Precipitation Wind Pressure Humidity
    00:00 -5°C° 0 mm 3 mps 760 mmHg 87%
    01:00 -7°C° 0 mm 4 mps 760 mmHg 87%
    02:00 -7°C° 0 mm 4 mps 760 mmHg 87%
    03:00 -7°C° 0 mm 4 mps 760 mmHg 86%
    04:00 -7°C° 0 mm 4 mps 760 mmHg 86%
    05:00 -7°C° 0 mm 4 mps 760 mmHg 86%
    06:00 -7°C° 0 mm 4 mps 760 mmHg 85%
    07:00 -7°C° 0 mm 4 mps 761 mmHg 85%
    08:00 -7°C° 0 mm 4 mps 761 mmHg 85%
    09:00 -5°C° 0 mm 4 mps 761 mmHg 83%
    10:00 -5°C° 0 mm 4 mps 761 mmHg 82%
    11:00 -5°C° 0 mm 3 mps 761 mmHg 81%
    12:00 -5°C° 0 mm 4 mps 761 mmHg 81%
    13:00 -5°C° 0 mm 4 mps 761 mmHg 80%
    14:00 -5°C° 0 mm 4 mps 761 mmHg 80%
    15:00 -5°C° 0 mm 4 mps 761 mmHg 81%
    16:00 -5°C° 0 mm 4 mps 761 mmHg 82%
    17:00 -7°C° 0 mm 4 mps 761 mmHg 83%
    18:00 -7°C° 0 mm 4 mps 761 mmHg 83%
    19:00 -7°C° 0 mm 4 mps 761 mmHg 83%
    20:00 -7°C° 0 mm 4 mps 761 mmHg 83%
    21:00 -7°C° 0 mm 4 mps 761 mmHg 83%
    22:00 -7°C° 0 mm 4 mps 761 mmHg 84%
    23:00 -8°C° 0 mm 4 mps 761 mmHg 84%

    17 December, Monday

    Time Temperature Precipitation Wind Pressure Humidity
    00:00 -8°C° 0 mm 4 mps 761 mmHg 84%
    01:00 -8°C° 0 mm 4 mps 761 mmHg 85%
    02:00 -8°C° 0 mm 4 mps 761 mmHg 85%
    03:00 -9°C° 0 mm 4 mps 761 mmHg 86%
    04:00 -9°C° 0 mm 4 mps 761 mmHg 86%
    05:00 -9°C° 0 mm 4 mps 761 mmHg 87%
    06:00 -10°C° 0 mm 4 mps 761 mmHg 86%
    07:00 -10°C° 0 mm 4 mps 761 mmHg 86%
    08:00 -10°C° 0 mm 4 mps 761 mmHg 85%
    09:00 -9°C° 0 mm 4 mps 760 mmHg 84%
    10:00 -9°C° 0 mm 4 mps 760 mmHg 83%
    11:00 -9°C° 0 mm 4 mps 760 mmHg 82%
    12:00 -9°C° 0 mm 4 mps 760 mmHg 82%
    13:00 -8°C° 0 mm 4 mps 760 mmHg 82%
    14:00 -8°C° 0 mm 4 mps 760 mmHg 81%
    15:00 -9°C° 0 mm 4 mps 760 mmHg 82%
    16:00 -9°C° 0 mm 4 mps 760 mmHg 83%
    17:00 -9°C° 0 mm 4 mps 760 mmHg 84%
    18:00 -9°C° 0 mm 4 mps 760 mmHg 84%
    19:00 -9°C° 0 mm 4 mps 760 mmHg 84%
    20:00 -9°C° 0 mm 4 mps 760 mmHg 84%
    21:00 -9°C° 0 mm 4 mps 760 mmHg 83%
    22:00 -9°C° 0 mm 4 mps 760 mmHg 83%
    23:00 -9°C° 0 mm 4 mps 760 mmHg 83%

    18 December, Tuesday

    Time Temperature Precipitation Wind Pressure Humidity
    00:00 -9°C° 0 mm 4 mps 760 mmHg 82%
    01:00 -8°C° 0 mm 3 mps 760 mmHg 82%
    02:00 -8°C° 0 mm 3 mps 760 mmHg 82%
    03:00 -8°C° 0 mm 3 mps 760 mmHg 83%
    04:00 -8°C° 0 mm 3 mps 760 mmHg 83%
    05:00 -8°C° 0 mm 3 mps 760 mmHg 83%
    06:00 -9°C° 0 mm 4 mps 760 mmHg 84%
    07:00 -10°C° 0 mm 4 mps 760 mmHg 84%
    08:00 -10°C° 0 mm 4 mps 760 mmHg 84%
    09:00 -9°C° 0 mm 4 mps 760 mmHg 83%
    10:00 -8°C° 0 mm 3 mps 760 mmHg 81%
    11:00 -8°C° 0 mm 3 mps 760 mmHg 80%
    12:00 -8°C° 0 mm 3 mps 760 mmHg 79%
    13:00 -8°C° 0 mm 3 mps 760 mmHg 79%
    14:00 -8°C° 0 mm 3 mps 760 mmHg 78%
    15:00 -8°C° 0 mm 3 mps 760 mmHg 79%
    16:00 -8°C° 0 mm 3 mps 760 mmHg 80%
    17:00 -9°C° 0 mm 3 mps 760 mmHg 81%
    18:00 -9°C° 0 mm 3 mps 760 mmHg 81%
    19:00 -9°C° 0 mm 3 mps 760 mmHg 81%
    20:00 -9°C° 0 mm 3 mps 761 mmHg 81%
    21:00 -9°C° 0 mm 3 mps 760 mmHg 80%
    22:00 -9°C° 0 mm 3 mps 760 mmHg 80%
    23:00 -9°C° 0 mm 3 mps 760 mmHg 80%

    19 December, Wednesday

    Time Temperature Precipitation Wind Pressure Humidity
    00:00 -9°C° 0 mm 3 mps 760 mmHg 80%
    01:00 -9°C° 0 mm 3 mps 760 mmHg 81%
    02:00 -8°C° 0 mm 2 mps 760 mmHg 81%
    03:00 -10°C° 0 mm 3 mps 760 mmHg 81%
    04:00 -10°C° 0 mm 3 mps 760 mmHg 81%
    05:00 -10°C° 0 mm 3 mps 760 mmHg 81%
    06:00 -10°C° 0 mm 3 mps 761 mmHg 81%
    07:00 -10°C° 0 mm 3 mps 761 mmHg 82%
    08:00 -9°C° 0 mm 2 mps 761 mmHg 82%
    09:00 -8°C° 0 mm 2 mps 761 mmHg 80%
    10:00 -8°C° 0 mm 2 mps 761 mmHg 79%
    11:00 -8°C° 0 mm 2 mps 761 mmHg 78%
    12:00 -7°C° 0 mm 2 mps 761 mmHg 78%
    13:00 -7°C° 0 mm 2 mps 761 mmHg 78%
    14:00 -7°C° 0 mm 2 mps 760 mmHg 78%
    15:00 -7°C° 0 mm 2 mps 760 mmHg 80%
    16:00 -7°C° 0 mm 2 mps 761 mmHg 82%
    17:00 -7°C° 0 mm 2 mps 761 mmHg 84%
    18:00 -7°C° 0 mm 2 mps 761 mmHg 85%
    19:00 -7°C° 0 mm 2 mps 761 mmHg 86%
    20:00 -8°C° 0 mm 3 mps 761 mmHg 87%
    21:00 -7°C° 0 mm 2 mps 761 mmHg 87%
    22:00 -7°C° 0 mm 2 mps 761 mmHg 87%
    23:00 -7°C° 0 mm 2 mps 761 mmHg 87%
    Show more